Previsão horária em Abaetetuba

Hoje, 23 Janeiro, Sábado

Tempo Temperatura Precipitação Vento Pressão Humidade
00:00 +25°C° 0 mm 2 m/s 758 mmHg 94%
01:00 +25°C° 0 mm 2 m/s 757 mmHg 94%
02:00 +25°C° 0 mm 2 m/s 757 mmHg 94%
03:00 +25°C° 0 mm 2 m/s 757 mmHg 94%
04:00 +25°C° 0 mm 2 m/s 757 mmHg 94%
05:00 +25°C° 0 mm 2 m/s 757 mmHg 94%
06:00 +24°C° 0 mm 2 m/s 757 mmHg 94%
07:00 +26°C° 0 mm 2 m/s 758 mmHg 89%
08:00 +27°C° 0 mm 2 m/s 758 mmHg 84%
09:00 +28°C° 0 mm 2 m/s 759 mmHg 79%
10:00 +30°C° 0 mm 2 m/s 758 mmHg 70%
11:00 +32°C° 0 mm 2 m/s 758 mmHg 62%
12:00 +35°C° 0 mm 2 m/s 758 mmHg 53%
13:00 +35°C° 0.1 mm 2 m/s 757 mmHg 53%
14:00 +35°C° 0.1 mm 2 m/s 756 mmHg 52%
15:00 +35°C° 0.1 mm 2 m/s 755 mmHg 52%
16:00 +33°C° 1.7 mm 3 m/s 755 mmHg 66%
17:00 +29°C° 1.7 mm 3 m/s 755 mmHg 79%
18:00 +27°C° 1.7 mm 4 m/s 755 mmHg 92%
19:00 +26°C° 1.3 mm 3 m/s 756 mmHg 93%
20:00 +26°C° 1.3 mm 3 m/s 757 mmHg 94%
21:00 +25°C° 1.3 mm 2 m/s 757 mmHg 94%
22:00 +25°C° 0 mm 2 m/s 757 mmHg 95%
23:00 +25°C° 0 mm 2 m/s 758 mmHg 95%

Amanhã, 24 Janeiro, Domingo

Tempo Temperatura Precipitação Vento Pressão Humidade
00:00 +25°C° 0 mm 2 m/s 758 mmHg 96%
01:00 +25°C° 0.1 mm 2 m/s 757 mmHg 96%
02:00 +25°C° 0.1 mm 2 m/s 757 mmHg 96%
03:00 +25°C° 0.1 mm 2 m/s 756 mmHg 97%
04:00 +25°C° 0 mm 2 m/s 756 mmHg 97%
05:00 +24°C° 0 mm 2 m/s 756 mmHg 97%
06:00 +24°C° 0 mm 2 m/s 757 mmHg 97%
07:00 +26°C° 0.1 mm 2 m/s 757 mmHg 91%
08:00 +27°C° 0.1 mm 2 m/s 758 mmHg 86%
09:00 +29°C° 0.1 mm 2 m/s 758 mmHg 80%
10:00 +30°C° 0.1 mm 2 m/s 758 mmHg 72%
11:00 +32°C° 0.1 mm 2 m/s 757 mmHg 64%
12:00 +35°C° 0.1 mm 2 m/s 757 mmHg 56%
13:00 +34°C° 0.8 mm 2 m/s 756 mmHg 64%
14:00 +33°C° 0.8 mm 3 m/s 755 mmHg 71%
15:00 +31°C° 0.8 mm 3 m/s 754 mmHg 79%
16:00 +30°C° 2 mm 3 m/s 755 mmHg 84%
17:00 +29°C° 2 mm 3 m/s 755 mmHg 88%
18:00 +27°C° 2 mm 3 m/s 755 mmHg 93%
19:00 +27°C° 3 mm 3 m/s 755 mmHg 94%
20:00 +26°C° 3 mm 4 m/s 756 mmHg 94%
21:00 +25°C° 3 mm 4 m/s 756 mmHg 95%
22:00 +25°C° 1.4 mm 3 m/s 757 mmHg 96%
23:00 +25°C° 1.4 mm 3 m/s 757 mmHg 97%

Depois de amanhã, 25 Janeiro, Segunda-feira

Tempo Temperatura Precipitação Vento Pressão Humidade
00:00 +25°C° 1.4 mm 3 m/s 757 mmHg 98%
01:00 +25°C° 0.4 mm 3 m/s 756 mmHg 98%
02:00 +25°C° 0.4 mm 2 m/s 756 mmHg 98%
03:00 +25°C° 0.4 mm 1 m/s 755 mmHg 98%
04:00 +25°C° 0 mm 1 m/s 755 mmHg 98%
05:00 +25°C° 0 mm 1 m/s 756 mmHg 98%
06:00 +25°C° 0 mm 1 m/s 756 mmHg 97%
07:00 +26°C° 0 mm 1 m/s 756 mmHg 95%
08:00 +26°C° 0 mm 1 m/s 757 mmHg 92%
09:00 +25°C° 0 mm 0 m/s 757 mmHg 89%
10:00 +27°C° 0.4 mm 0 m/s 757 mmHg 84%
11:00 +30°C° 0.4 mm 1 m/s 757 mmHg 78%
12:00 +31°C° 0.4 mm 1 m/s 756 mmHg 73%
13:00 +31°C° 1.2 mm 1 m/s 756 mmHg 78%
14:00 +30°C° 1.2 mm 1 m/s 755 mmHg 82%
15:00 +30°C° 1.2 mm 2 m/s 754 mmHg 87%
16:00 +29°C° 1.7 mm 2 m/s 755 mmHg 89%
17:00 +28°C° 1.7 mm 2 m/s 755 mmHg 91%
18:00 +27°C° 1.7 mm 3 m/s 755 mmHg 93%
19:00 +26°C° 1.6 mm 2 m/s 756 mmHg 94%
20:00 +26°C° 1.6 mm 2 m/s 756 mmHg 95%
21:00 +26°C° 1.6 mm 2 m/s 757 mmHg 96%
22:00 +25°C° 0.7 mm 2 m/s 757 mmHg 96%
23:00 +25°C° 0.7 mm 1 m/s 757 mmHg 97%

26 Janeiro, Terça-feira

Tempo Temperatura Precipitação Vento Pressão Humidade
00:00 +25°C° 0.7 mm 1 m/s 757 mmHg 97%
01:00 +25°C° 0 mm 1 m/s 756 mmHg 97%
02:00 +25°C° 0 mm 1 m/s 756 mmHg 97%
03:00 +25°C° 0 mm 1 m/s 755 mmHg 97%
04:00 +25°C° 0 mm 1 m/s 756 mmHg 97%
05:00 +25°C° 0 mm 1 m/s 756 mmHg 97%
06:00 +25°C° 0 mm 1 m/s 756 mmHg 97%
07:00 +26°C° 0 mm 1 m/s 757 mmHg 94%
08:00 +27°C° 0 mm 1 m/s 757 mmHg 91%
09:00 +28°C° 0 mm 1 m/s 758 mmHg 88%
10:00 +29°C° 0.5 mm 1 m/s 758 mmHg 83%
11:00 +30°C° 0.5 mm 1 m/s 757 mmHg 77%
12:00 +31°C° 0.5 mm 1 m/s 757 mmHg 72%
13:00 +30°C° 0.6 mm 1 m/s 756 mmHg 76%
14:00 +30°C° 0.6 mm 1 m/s 756 mmHg 79%
15:00 +29°C° 0.6 mm 2 m/s 755 mmHg 82%
16:00 +29°C° 0.5 mm 2 m/s 755 mmHg 86%
17:00 +28°C° 0.5 mm 2 m/s 755 mmHg 90%
18:00 +27°C° 0.5 mm 2 m/s 755 mmHg 93%
19:00 +27°C° 0.6 mm 2 m/s 756 mmHg 94%
20:00 +26°C° 0.6 mm 2 m/s 756 mmHg 95%
21:00 +26°C° 0.6 mm 2 m/s 757 mmHg 96%
22:00 +26°C° 0.2 mm 2 m/s 757 mmHg 96%
23:00 +25°C° 0.2 mm 1 m/s 757 mmHg 97%

27 Janeiro, Quarta-feira

Tempo Temperatura Precipitação Vento Pressão Humidade
00:00 +25°C° 0.2 mm 1 m/s 757 mmHg 97%
01:00 +25°C° 0.5 mm 1 m/s 757 mmHg 97%
02:00 +25°C° 0.5 mm 1 m/s 756 mmHg 97%
03:00 +25°C° 0.5 mm 1 m/s 756 mmHg 98%
04:00 +25°C° 0.3 mm 1 m/s 756 mmHg 98%
05:00 +23°C° 0.3 mm 0 m/s 756 mmHg 98%
06:00 +22°C° 0.3 mm 0 m/s 757 mmHg 98%
07:00 +24°C° 0.2 mm 0 m/s 757 mmHg 93%
08:00 +25°C° 0.2 mm 0 m/s 757 mmHg 89%
09:00 +27°C° 0.2 mm 0 m/s 758 mmHg 85%
10:00 +30°C° 0.1 mm 1 m/s 757 mmHg 76%
11:00 +31°C° 0.1 mm 1 m/s 757 mmHg 68%
12:00 +33°C° 0.1 mm 1 m/s 757 mmHg 60%
13:00 +32°C° 0.5 mm 2 m/s 756 mmHg 66%
14:00 +32°C° 0.5 mm 2 m/s 756 mmHg 72%
15:00 +31°C° 0.5 mm 2 m/s 755 mmHg 78%
16:00 +30°C° 0.9 mm 2 m/s 755 mmHg 83%
17:00 +29°C° 0.9 mm 2 m/s 755 mmHg 88%
18:00 +28°C° 0.9 mm 3 m/s 756 mmHg 93%
19:00 +27°C° 1.7 mm 3 m/s 756 mmHg 93%
20:00 +26°C° 1.7 mm 3 m/s 757 mmHg 94%
21:00 +26°C° 1.7 mm 3 m/s 757 mmHg 94%
22:00 +26°C° 1.5 mm 2 m/s 757 mmHg 95%
23:00 +26°C° 1.5 mm 2 m/s 757 mmHg 96%

28 Janeiro, Quinta-feira

Tempo Temperatura Precipitação Vento Pressão Humidade
00:00 +25°C° 1.5 mm 2 m/s 757 mmHg 96%
01:00 +25°C° 0.5 mm 1 m/s 757 mmHg 96%
02:00 +25°C° 0.5 mm 1 m/s 756 mmHg 96%
03:00 +25°C° 0.5 mm 1 m/s 756 mmHg 96%
04:00 +25°C° 0.1 mm 1 m/s 756 mmHg 96%
05:00 +25°C° 0.1 mm 1 m/s 756 mmHg 96%
06:00 +24°C° 0.1 mm 1 m/s 756 mmHg 96%
07:00 +25°C° 0.5 mm 1 m/s 757 mmHg 95%
08:00 +27°C° 0.5 mm 1 m/s 757 mmHg 93%
09:00 +28°C° 0.5 mm 1 m/s 758 mmHg 92%
10:00 +29°C° 0.8 mm 1 m/s 757 mmHg 87%
11:00 +29°C° 0.8 mm 2 m/s 757 mmHg 82%
12:00 +30°C° 0.8 mm 2 m/s 757 mmHg 77%
13:00 +31°C° 0.4 mm 2 m/s 756 mmHg 74%
14:00 +31°C° 0.4 mm 3 m/s 755 mmHg 70%
15:00 +33°C° 0.4 mm 3 m/s 755 mmHg 67%
Mostrar mais